Regional Weather Roundup
Issued by NWS Green Bay, WI

Home | Current Version | Previous Version | Graphics & Text | Print | Product List | Glossary Off
Versions: 1 2 3 4 5 6 7 8 9 10 11 12 13 14 15 16 17 18 19 20 21 22 23 24 25 26 27 28 29 30 31 32 33 34 35 36 37 38 39 40 41 42 43 44 45 46 47 48 49 50

000
ASUS43 KGRB 011059
RWRGRB

NORTH-CENTRAL AND NORTHEAST WISCONSIN REGIONAL WEATHER ROUNDUP
NATIONAL WEATHER SERVICE GREEN BAY WI
500 AM CST SUN MAR 01 2015

WIZ005-009-010>012-018-019-011200-
NORTH CENTRAL WISCONSIN

CITY           SKY/WX    TMP DP  RH WIND       PRES   REMARKS
IRONWOOD       CLOUDY    12   7  79 SW10      30.15S WCI  -1
MANITOWISH WTR NOT AVBL
ARBOR VITAE    NOT AVBL
EAGLE RIVER    NOT AVBL
LAND O LAKES   NOT AVBL
RHINELANDER    CLOUDY     8   0  69 SW8       30.20F WCI  -4
PHILLIPS       NOT AVBL
ANTIGO         NOT AVBL
TOMAHAWK       NOT AVBL
MERRILL        NOT AVBL
$$

WIZ013-073-011200-
NORTHEAST WISCONSIN

CITY           SKY/WX    TMP DP  RH WIND       PRES   REMARKS
IRON MOUNTAIN  CLEAR      7  -3  64 S5        30.23F WCI  -2
MARINETTE      CLEAR     12   1  62 SW7       30.32F WCI   2
$$

WIZ017-030-035>037-045-011200-
CENTRAL WISCONSIN

CITY           SKY/WX    TMP DP  RH WIND       PRES   REMARKS
MEDFORD        NOT AVBL
WAUSAU         CLOUDY    10   3  73 SW3       30.26F
MOSINEE        NOT AVBL
MARSHFIELD     MOCLDY     9   3  77 SW8       30.27S WCI  -3
WISC RAPIDS    MOCLDY     9   2  73 S7        30.33S WCI  -2
STEVENS POINT  NOT AVBL
WAUPACA        NOT AVBL
SHAWANO        NOT AVBL
CLINTONVILLE   NOT AVBL
$$

WIZ038-039-048-051-011200-
FOX VALLEY

CITY           SKY/WX    TMP DP  RH WIND       PRES   REMARKS
NWS GREEN BAY  PTCLDY    12   6  77 SW7       30.35F WCI   1
APPLETON       NOT AVBL
OSHKOSH        PTCLDY    11   7  84 SW3       30.35S
FOND DU LAC    PTCLDY    12   7  80 S6        30.35F WCI   3
$$

WIZ022-050-052-011200-
EAST CENTRAL WISCONSIN

CITY           SKY/WX    TMP DP  RH WIND       PRES   REMARKS
STURGEON BAY   CLEAR     10   3  72 SW8       30.35F WCI  -1
MANITOWOC      NOT AVBL
SHEBOYGAN      CLOUDY    12   8  84 S6        30.36F WCI   3
$$

LMZ563-521-522-541>543-011200-
LAKESHORE

STATION/POSITION TIME  TEMP    WIND        PRES    VSBY  WAVE
                       AIR SEA DIR/SP/G                  HT/PER
                 (UTC) (F)     (DEG/KT/KT) (MB)    (MI)  (FT/S)
SHEBOYGAN LKSHOR 1000   16     240/  7/  8 1030.5R
KEWAUNEE LKSHORE 1000   14     240/  5/  9 1027.3R
NORTHPORT PIER   1000   15     220/  5/ 12 1027.1R
CHAMBERS ISLAND  1000   13     190/  6/ 11 1027.4S
MENOMINEE LKSHOR 1000   14     210/  8     1027.9R
$$



USA.gov is the U.S. government's official web portal to all federal, state and local government web resources and services.